Change the Weather History Date:

Thursday, October 10, 2013

  Actual Average Record
Temperature  
Mean Temperature 42 °F -  
Max Temperature 50 °F 59 °F 76 °F (1942)
Min Temperature 35 °F 34 °F 19 °F (1919)
Degree Days  
Heating Degree Days 22    
Moisture  
Dew Point 41 °F    
Average Humidity 89    
Maximum Humidity 100    
Minimum Humidity 66    
Precipitation  
Precipitation 0.00 in - - ()
Sea Level Pressure  
Sea Level Pressure 29.88 in    
Wind  
Wind Speed 3 mph (SW)    
Max Wind Speed 8 mph    
Max Gust Speed -    
Visibility 10 miles    
Events Rain    
Averages and records for this station are not official NWS values.
T = Trace of Precipitation, MM = Missing Value Source: NWS Daily Summary

Daily Weather History Graph

Daily Weather History Graph

Search for Another Location

Airport or City:

Trip Planner

Search our weather history database for the weather conditions in past years. The results will help you decide how hot, cold, wet, or windy it might be!

Date:

Astronomy

Oct. 10, 2013 Rise Set
Actual Time 6:59 AM PDT 6:06 PM PDT
Civil Twilight 6:27 AM PDT 6:37 PM PDT
Nautical Twilight 5:51 AM PDT 7:13 PM PDT
Astronomical Twilight 5:15 AM PDT 7:49 PM PDT
Moon 1:12 PM PDT (10/10) 10:32 PM PDT (10/10)
Length of Visible Light 12h 09m
Length of Day
11h 07m
Waxing Crescent, 37% of the Moon is Illuminated
Oct 10
Waxing Crescent
Oct 11
First Quarter
Oct 18
Full
Oct 26
Last Quarter
Nov 3
New

Hourly Weather History & Observations

Time (PDT) Temp. Windchill Dew Point Humidity Pressure Visibility Wind Dir Wind Speed Gust Speed Precip Events Conditions
12:15 AM 35.6 °F - 35.6 °F 100% 29.89 in 10.0 mi Calm Calm - N/A   Clear
12:35 AM 37.4 °F 34.9 °F 37.4 °F 100% 29.88 in 10.0 mi West 3.5 mph - N/A   Clear
12:55 AM 37.4 °F - 37.4 °F 100% 29.88 in 10.0 mi Calm Calm - N/A   Clear
1:15 AM 37.4 °F - 37.4 °F 100% 29.88 in 10.0 mi Calm Calm - N/A   Scattered Clouds
1:35 AM 37.4 °F - 37.4 °F 100% 29.88 in 10.0 mi Calm Calm - N/A   Mostly Cloudy
1:55 AM 37.4 °F 34.9 °F 37.4 °F 100% 29.88 in 10.0 mi SW 3.5 mph - N/A   Overcast
2:15 AM 41.0 °F 38.0 °F 41.0 °F 100% 29.88 in 10.0 mi WSW 4.6 mph - N/A   Overcast
2:35 AM 42.8 °F 41.1 °F 42.8 °F 100% 29.88 in 10.0 mi WSW 3.5 mph - N/A   Overcast
2:55 AM 42.8 °F 41.1 °F 42.8 °F 100% 29.87 in 10.0 mi SSW 3.5 mph - N/A   Overcast
3:15 AM 42.8 °F 39.3 °F 42.8 °F 100% 29.87 in 10.0 mi SW 5.8 mph - N/A   Overcast
3:35 AM 42.8 °F 39.3 °F 42.8 °F 100% 29.86 in 10.0 mi SW 5.8 mph - N/A   Overcast
3:55 AM 42.8 °F 41.1 °F 42.8 °F 100% 29.86 in 10.0 mi SSW 3.5 mph - N/A   Overcast
4:15 AM 42.8 °F 40.1 °F 42.8 °F 100% 29.86 in 10.0 mi SSW 4.6 mph - N/A   Overcast
4:35 AM 42.8 °F 40.1 °F 42.8 °F 100% 29.86 in 10.0 mi SW 4.6 mph - N/A   Overcast
4:55 AM 42.8 °F 40.1 °F 42.8 °F 100% 29.85 in 10.0 mi SSW 4.6 mph - N/A   Overcast
5:15 AM 42.8 °F 40.1 °F 42.8 °F 100% 29.85 in 10.0 mi SW 4.6 mph - N/A   Overcast
5:35 AM 42.8 °F 41.1 °F 42.8 °F 100% 29.84 in 10.0 mi SW 3.5 mph - N/A   Overcast
5:55 AM 42.8 °F 40.1 °F 42.8 °F 100% 29.84 in 10.0 mi SSW 4.6 mph - N/A   Overcast
6:15 AM 41.0 °F 37.1 °F 41.0 °F 100% 29.85 in 10.0 mi SW 5.8 mph - N/A   Mostly Cloudy
6:35 AM 42.8 °F 40.1 °F 42.8 °F 100% 29.84 in 10.0 mi WSW 4.6 mph - N/A   Mostly Cloudy
6:55 AM 42.8 °F 41.1 °F 42.8 °F 100% 29.85 in 10.0 mi SW 3.5 mph - N/A   Overcast
7:15 AM 42.8 °F 39.3 °F 42.8 °F 100% 29.86 in 10.0 mi SSW 5.8 mph - N/A   Overcast
7:35 AM 42.8 °F 40.1 °F 42.8 °F 100% 29.86 in 10.0 mi SSW 4.6 mph - N/A   Overcast
7:55 AM 42.8 °F 40.1 °F 42.8 °F 100% 29.86 in 10.0 mi South 4.6 mph - N/A   Overcast
8:15 AM 42.8 °F 40.1 °F 42.8 °F 100% 29.86 in 10.0 mi SSW 4.6 mph - N/A   Overcast
8:35 AM 42.8 °F 40.1 °F 42.8 °F 100% 29.87 in 10.0 mi SSW 4.6 mph - N/A   Overcast
8:55 AM 42.8 °F 39.3 °F 41.0 °F 93% 29.87 in 10.0 mi SW 5.8 mph - N/A   Overcast
9:15 AM 44.6 °F 43.1 °F 42.8 °F 93% 29.87 in 10.0 mi SSW 3.5 mph - N/A   Overcast
9:35 AM 44.6 °F 42.2 °F 41.0 °F 87% 29.87 in 10.0 mi SW 4.6 mph - N/A   Overcast
9:55 AM 44.6 °F 42.2 °F 41.0 °F 87% 29.87 in 10.0 mi WSW 4.6 mph - N/A   Overcast
10:15 AM 44.6 °F 42.2 °F 41.0 °F 87% 29.87 in 10.0 mi SW 4.6 mph - N/A   Overcast
10:35 AM 44.6 °F 43.1 °F 41.0 °F 87% 29.87 in 10.0 mi SSW 3.5 mph - N/A   Overcast
10:55 AM 44.6 °F 41.4 °F 41.0 °F 87% 29.87 in 10.0 mi SW 5.8 mph - N/A   Overcast
11:15 AM 46.4 °F 45.2 °F 41.0 °F 81% 29.87 in 10.0 mi SSW 3.5 mph - N/A   Overcast
11:35 AM 46.4 °F 44.3 °F 39.2 °F 76% 29.88 in 10.0 mi WSW 4.6 mph - N/A   Overcast
11:55 AM 46.4 °F 45.2 °F 39.2 °F 76% 29.87 in 10.0 mi WSW 3.5 mph - N/A   Overcast
12:15 PM 46.4 °F 42.9 °F 39.2 °F 76% 29.87 in 10.0 mi WSW 6.9 mph - N/A   Overcast
12:35 PM 48.2 °F - 39.2 °F 71% 29.88 in 10.0 mi WSW 4.6 mph - N/A   Overcast
12:55 PM 48.2 °F - 39.2 °F 71% 29.87 in 10.0 mi SW 6.9 mph - N/A   Overcast
1:15 PM 48.2 °F - 39.2 °F 71% 29.87 in 10.0 mi WSW 5.8 mph - N/A   Overcast
1:35 PM 48.2 °F - 39.2 °F 71% 29.87 in 10.0 mi WSW 6.9 mph - N/A   Overcast
1:55 PM 48.2 °F - 39.2 °F 71% 29.87 in 10.0 mi SW 4.6 mph - N/A   Overcast
2:15 PM 46.4 °F 43.5 °F 39.2 °F 76% 29.88 in 10.0 mi SW 5.8 mph - N/A   Overcast
2:35 PM 48.2 °F - 39.2 °F 71% 29.88 in 10.0 mi SW 5.8 mph - N/A   Overcast
2:55 PM 48.2 °F - 39.2 °F 71% 29.87 in 10.0 mi SW 4.6 mph - N/A   Overcast
3:15 PM 50.0 °F - 39.2 °F 66% 29.87 in 10.0 mi SW 5.8 mph - N/A   Overcast
3:35 PM 50.0 °F - 39.2 °F 66% 29.88 in 10.0 mi SSW 4.6 mph - N/A   Overcast
3:55 PM 48.2 °F - 39.2 °F 71% 29.88 in 10.0 mi SSW 6.9 mph - N/A   Overcast
4:15 PM 48.2 °F - 39.2 °F 71% 29.88 in 10.0 mi SSW 3.5 mph - N/A   Overcast
4:35 PM 48.2 °F - 41.0 °F 76% 29.88 in 10.0 mi SSW 3.5 mph - N/A   Overcast
4:55 PM 48.2 °F - 41.0 °F 76% 29.88 in 10.0 mi SSW 5.8 mph - N/A   Overcast
5:15 PM 48.2 °F - 41.0 °F 76% 29.88 in 10.0 mi SW 4.6 mph - N/A   Overcast
5:35 PM 46.4 °F 45.2 °F 41.0 °F 81% 29.88 in 10.0 mi West 3.5 mph - N/A Rain Rain
5:55 PM 46.4 °F - 41.0 °F 81% 29.89 in 10.0 mi Calm Calm - N/A Rain Light Rain
6:15 PM 46.4 °F 45.2 °F 41.0 °F 81% 29.89 in 10.0 mi WSW 3.5 mph - N/A   Light Drizzle
6:35 PM 44.6 °F - 42.8 °F 93% 29.90 in 10.0 mi Calm Calm - N/A Rain Light Rain
6:55 PM 46.4 °F 45.2 °F 41.0 °F 81% 29.90 in 10.0 mi West 3.5 mph - N/A Rain Light Rain
7:15 PM 44.6 °F 42.2 °F 42.8 °F 93% 29.90 in 10.0 mi WSW 4.6 mph - N/A   Mostly Cloudy
7:35 PM 42.8 °F 40.1 °F 42.8 °F 100% 29.90 in 10.0 mi South 4.6 mph - N/A   Overcast
7:55 PM 44.6 °F 42.2 °F 42.8 °F 93% 29.92 in 10.0 mi West 4.6 mph - N/A   Drizzle
8:15 PM 44.6 °F 43.1 °F 42.8 °F 93% 29.92 in 10.0 mi WSW 3.5 mph - N/A Rain Light Rain
8:35 PM 42.8 °F 38.6 °F 42.8 °F 100% 29.92 in 10.0 mi SW 6.9 mph - N/A   Mostly Cloudy
8:55 PM 42.8 °F 38.0 °F 41.0 °F 93% 29.93 in 10.0 mi South 8.1 mph - N/A   Overcast
9:15 PM 42.8 °F - 41.0 °F 93% 29.93 in 10.0 mi Calm Calm - N/A   Overcast
9:35 PM 42.8 °F 40.1 °F 39.2 °F 87% 29.94 in 10.0 mi West 4.6 mph - N/A   Mostly Cloudy
9:55 PM 41.0 °F - 39.2 °F 93% 29.95 in 10.0 mi Calm Calm - N/A   Scattered Clouds
10:15 PM 39.2 °F - 39.2 °F 100% 29.95 in 10.0 mi Calm Calm - N/A   Clear
10:35 PM 41.0 °F - 39.2 °F 93% 29.96 in 10.0 mi Calm Calm - N/A   Clear
10:55 PM 41.0 °F - 37.4 °F 87% 29.96 in 10.0 mi Calm Calm - N/A   Clear
11:15 PM 37.4 °F 34.9 °F 37.4 °F 100% 29.96 in 10.0 mi SW 3.5 mph - N/A   Clear
11:55 PM 35.6 °F 29.9 °F 35.6 °F 100% 29.97 in 10.0 mi NNE 6.9 mph - N/A   Clear